Sacramento, CA

5:17 PM PST on February 27, 2017 (GMT -0800)
Sacramento Executive

Weather History for KSAC - April, 2013

Change the Weather History Date:

Tuesday, April 23, 2013

  Actual Average Record
Temperature  
Mean Temperature 72 °F -  
Max Temperature 85 °F 73 °F 89 °F (1962)
Min Temperature 59 °F 47 °F 37 °F (1964)
Degree Days  
Heating Degree Days 0    
Cooling Degree Days 7    
Growing Degree Days 22 (Base 50)    
Moisture  
Dew Point 28 °F    
Average Humidity 16    
Maximum Humidity 22    
Minimum Humidity 10    
Precipitation  
Precipitation 0.00 in 0.03 in 0.65 in (1983)
Month to date precipitation 0.69 0.94  
Year to date precipitation 3.39 10.80  
Since 1 July precipitation 14.68  
Sea Level Pressure  
Sea Level Pressure 29.87 in    
Wind  
Wind Speed 13 mph (NW)    
Max Wind Speed 23 mph    
Max Gust Speed 31 mph    
Visibility 10 miles    
Events      
T = Trace of Precipitation, MM = Missing Value Source: NWS Daily Summary

Daily Weather History Graph

Daily Weather History Graph

Search for Another Location

Airport or City:

Trip Planner

Search our weather history database for the weather conditions in past years. The results will help you decide how hot, cold, wet, or windy it might be!

Date:

Astronomy

Apr. 23, 2013 Rise Set
Actual Time 6:18 AM PDT 7:50 PM PDT
Civil Twilight 5:50 AM PDT 8:18 PM PDT
Nautical Twilight 5:16 AM PDT 8:52 PM PDT
Astronomical Twilight 4:41 AM PDT 9:28 PM PDT
Moon 5:52 PM PDT (4/23) 4:47 AM PDT (4/23)
Length of Visible Light 14h 28m
Length of Day
13h 32m
Waxing Gibbous, 94% of the Moon is Illuminated
Apr 23
Waxing Gibbous
Apr 25
Full
May 2
Last Quarter
May 9
New
May 17
First Quarter

Hourly Weather History & Observations

Time (PDT) Temp. Dew Point Humidity Pressure Visibility Wind Dir Wind Speed Gust Speed Precip Events Conditions
12:53 AM 69.1 °F 26.1 °F 20% 29.86 in 10.0 mi NNW 17.3 mph 27.6 mph N/A   Clear
1:53 AM 66.9 °F 26.1 °F 21% 29.87 in 10.0 mi NNW 18.4 mph 31.1 mph N/A   Clear
2:53 AM 66.0 °F 25.0 °F 21% 29.87 in 10.0 mi NNW 19.6 mph 26.5 mph N/A   Clear
3:53 AM 64.0 °F 24.1 °F 22% 29.88 in 10.0 mi NNW 16.1 mph 26.5 mph N/A   Clear
4:53 AM 62.1 °F 23.0 °F 22% 29.88 in 10.0 mi NW 13.8 mph 23.0 mph N/A   Clear
5:53 AM 61.0 °F 21.9 °F 22% 29.89 in 10.0 mi NNW 15.0 mph - N/A   Clear
6:53 AM 60.1 °F 21.9 °F 23% 29.90 in 10.0 mi NW 12.7 mph - N/A   Clear
7:53 AM 63.0 °F 23.0 °F 22% 29.91 in 10.0 mi NNW 15.0 mph - N/A   Clear
8:53 AM 66.0 °F 24.1 °F 20% 29.92 in 10.0 mi NNW 16.1 mph 25.3 mph N/A   Clear
9:53 AM 71.1 °F 26.1 °F 19% 29.93 in 10.0 mi NNW 15.0 mph 21.9 mph N/A   Clear
10:53 AM 73.9 °F 24.1 °F 16% 29.93 in 10.0 mi North 16.1 mph 27.6 mph N/A   Clear
11:53 AM 78.1 °F 26.1 °F 15% 29.92 in 10.0 mi NW 13.8 mph - N/A   Clear
12:53 PM 80.1 °F 25.0 °F 13% 29.91 in 10.0 mi NW 11.5 mph 20.7 mph N/A   Clear
1:53 PM 81.0 °F 25.0 °F 13% 29.89 in 10.0 mi NW 8.1 mph - N/A   Clear
2:53 PM 82.9 °F 25.0 °F 12% 29.88 in 10.0 mi NNW 5.8 mph - N/A   Clear
3:53 PM 82.9 °F 24.1 °F 12% 29.86 in 10.0 mi North 9.2 mph - N/A   Clear
4:53 PM 82.9 °F 21.0 °F 10% 29.83 in 10.0 mi Variable 6.9 mph - N/A   Clear
5:53 PM 84.0 °F 26.1 °F 12% 29.83 in 10.0 mi Calm Calm - N/A   Clear
6:53 PM 82.0 °F 21.0 °F 10% 29.82 in 10.0 mi Calm Calm - N/A   Clear
7:53 PM 73.9 °F 39.9 °F 29% 29.81 in 10.0 mi SW 9.2 mph - N/A   Clear
8:53 PM 64.9 °F 43.0 °F 45% 29.83 in 10.0 mi SW 6.9 mph - N/A   Clear
9:53 PM 61.0 °F 41.0 °F 48% 29.84 in 10.0 mi SSW 4.6 mph - N/A   Clear
10:53 PM 59.0 °F 39.9 °F 49% 29.84 in 10.0 mi SSW 3.5 mph - N/A   Clear
11:53 PM 57.0 °F 41.0 °F 55% 29.84 in 10.0 mi SSW 3.5 mph - N/A   Clear